CRRES DEB (CANISTER)

基本信息
目录编号:
21588
目录名称:
CRRES DEB (CANISTER)
国际标识:
1990-065D
轨道中心:
EARTH
物体状态:
在轨
发射日期:
1990-07-25 UTC
轨道信息
数据来源: 国际轨道数据
星历时间: 2026-07-08T13:15:22+0800
半长轴: 22653.855km
偏心率: 0.7021868
轨道倾角: 18.025°
近地点辐角: 142.761°
升交点赤经: 163.144°
平近点角: 297.119°
近地点: 368.48km
远地点: 32182.956km
周期: 565.552分钟
每日圈数: 2.546183
详细信息
发射场:
AFETR
轨道高度:
LEO
数据来源:
AOE Integration Group
参考系:
TEME
时间系统:
UTC
历元类型:
SGP4
2D轨道图
3D轨道图
轨道高度分析图
轨道倾角分析图
轨道综合分析图
查看轨道综合分析图